Flag for U.S.A. Weather past 2 weeks in Brockton, Massachusetts, U.S.A.

Now
30 °F

Chilly.


Feels Like: 23 °F
Forecast: 33 / 37 °F
Wind: 7 mph from North

Location: East Milton

Current Time: Dec 21, 2014 at 1:56:39 PM

Latest Report: Dec 21, 2014 at 12:54 PM


Visibility: N/A

Pressure: 30.30 "Hg

Humidity: 92%

Dew point: 28 °F

Location of BrocktonLocation

Historic Weather in Brockton — Graph

°F

Brockton temperature yesterday

Maximum temperature yesterday: 31 °F (at 1:54 PM)
Minimum temperature yesterday: 24 °F (at 1:54 AM)
Average temperature yesterday: 28 °F

Past Weeks' High & Low Weather Summary

 TemperatureHumidityPressure
High48 °F (Dec 9, 8:54 PM)100% (Dec 6, 12:54 PM)30.76 "Hg (Dec 6, 12:54 PM)
Low16 °F (Dec 8, 4:54 AM)30% (Dec 7, 7:54 PM)29.44 "Hg (Dec 10, 7:54 PM)
Average33 °F85%30.00 "Hg
* Reported Dec 6 12:54 PM — Dec 21 12:54 PM, Brockton, Weather by CustomWeather, © 2014

Note: Actual official high and low records may vary slightly from our data, if they occured in-between our weather recording intervals... More about our weather records

Advertising

Brockton weather history for previous 24 hours

 ConditionsComfort  
Time TempWeatherWind HumidityBarometerVisibility
12:54 PM
Dec 21
30 °FChilly.7 mph92%30.30 "HgN/A
11:54 AM29 °FChilly.No wind93%30.31 "HgN/A
10:54 AM29 °FChilly.7 mph96%30.33 "HgN/A
9:54 AM29 °FChilly.3 mph96%30.34 "HgN/A
8:54 AM29 °FChilly.8 mph96%30.32 "HgN/A
7:54 AM29 °FChilly.10 mph96%30.32 "HgN/A
6:54 AM29 °FChilly.9 mph100%30.31 "HgN/A
5:54 AM30 °FChilly.12 mph96%30.29 "HgN/A
4:54 AM31 °FChilly.8 mph100%30.29 "HgN/A
3:54 AM32 °FChilly.10 mph96%30.29 "HgN/A
2:54 AM32 °FChilly.9 mph96%30.29 "HgN/A
1:54 AM32 °FChilly.12 mph92%30.29 "HgN/A
12:54 AM31 °FChilly.9 mph96%30.29 "HgN/A
11:54 PM
Dec 20
31 °FChilly.10 mph96%30.29 "HgN/A
10:54 PM31 °FChilly.9 mph96%30.31 "HgN/A
9:54 PM31 °FChilly.10 mph96%30.30 "HgN/A
8:54 PM31 °FChilly.13 mph96%30.30 "HgN/A
7:54 PM30 °FChilly.13 mph100%30.31 "HgN/A
6:54 PM30 °FChilly.9 mph96%30.31 "HgN/A
5:54 PM30 °FChilly.10 mph89%30.29 "HgN/A
4:54 PM29 °FChilly.8 mph93%30.29 "HgN/A
3:54 PM30 °FChilly.8 mph82%30.28 "HgN/A
2:54 PM31 °FChilly.7 mph79%30.28 "HgN/A
1:54 PM31 °FChilly.7 mph79%30.27 "HgN/A
Weather by CustomWeather, © 2014

See weather overviewHow to use our weather pages